This demonstration page uses our WeatherBlox Daily Observations layout. Learn more.

39.29038, -76.61219

Hourly Observations for December 2, 2018

Temp ( °F °C ) Dew Point ( °F °C ) Humidity (%) Winds ( mph kmh ) Pressure ( in mb ) Visibility ( mi km ) Precip ( " mm )
12:54 am 00:54 undefined 46 7.8 44 6.7 93 93 undefined N/A 29.88 1012 N/A 0.02 0.508
1:54 am 01:54 undefined 47 8.3 45 7.2 93 93 undefined N/A 29.85 1011 N/A 0.12 3.048
2:54 am 02:54 undefined 48 8.9 46 7.8 93 93 undefined N/A 29.85 1011 N/A 0.02 0.508
3:54 am 03:54 undefined 48 8.9 46 7.8 93 93 undefined N/A 29.8 1009 N/A 0.05 1.27
4:54 am 04:54 undefined 49 9.4 47 8.3 93 93 undefined N/A 29.77 1008 N/A 0.04 1.016
5:54 am 05:54 undefined 50 10 48 8.9 93 93 undefined N/A 29.77 1008 N/A 0.01 0.254
6:54 am 06:54 undefined 50 10 48 8.9 93 93 undefined N/A 29.74 1007 N/A 0.01 0.254
7:54 am 07:54 undefined 50 10 48 8.9 93 93 undefined N/A 29.74 1007 N/A 0 0
8:54 am 08:54 undefined 50 10 49 9.4 96 96 undefined N/A 29.74 1007 N/A 0 0
9:54 am 09:54 undefined 51 10.6 49 9.4 92 92 undefined N/A 29.74 1007 N/A 0 0
10:54 am 10:54 undefined 52 11.1 50 10 93 93 undefined N/A 29.74 1007 N/A 0 0
11:54 am 11:54 undefined 53 11.7 50 10 89 89 undefined N/A 29.71 1006 N/A 0 0
12:54 pm 12:54 undefined 54 12.2 51 10.6 90 90 undefined N/A 29.68 1005 N/A 0 0
1:54 pm 13:54 undefined 54 12.2 51 10.6 90 90 undefined N/A 29.65 1004 N/A 0 0
2:54 pm 14:54 undefined 55 12.8 52 11.1 90 90 undefined N/A 29.65 1004 N/A 0 0
3:54 pm 15:54 undefined 55 12.8 52 11.1 90 90 undefined N/A 29.62 1003 N/A 0 0
4:54 pm 16:54 undefined 54 12.2 51 10.6 90 90 undefined N/A 29.59 1002 N/A 0 0
5:54 pm 17:54 undefined 54 12.2 51 10.6 90 90 undefined N/A 29.62 1003 N/A 0 0
6:54 pm 18:54 undefined 54 12.2 51 10.6 90 90 undefined N/A 29.62 1003 N/A 0 0
7:54 pm 19:54 undefined 56 13.3 53 11.7 90 90 undefined N/A 29.62 1003 N/A 0 0
8:54 pm 20:54 undefined 56 13.3 53 11.7 90 90 undefined N/A 29.62 1003 N/A 0 0
9:54 pm 21:54 undefined 56 13.3 54 12.2 93 93 undefined N/A 29.62 1003 N/A 0 0
10:54 pm 22:54 undefined 57 13.9 54 12.2 90 90 undefined N/A 29.62 1003 N/A 0 0
11:54 pm 23:54 undefined 57 13.9 54 12.2 90 90 undefined N/A 29.59 1002 N/A 0 0

Powered by AerisWeather